Location: Bothwell
(41.7170°N, 112.2589°W)
Time: 14:52:44
(UTC+00:00)

Vanguard 2 - Pass Details

Date: 17 May 2026
Orbit: 553 x 2894 km, 32.9° (Epoch: 8 June)

Event Time Altitude Azimuth Distance (km) Brightness Sun altitude
Rises 08:27:02 0° 232° (SW) 6,122 - -27.3°
Reaches altitude 10° 08:30:57 10° 227° (SW) 5,327 - -27.1°
Exits shadow 08:39:48 37° 205° (SSW) 3,866 10.5 -26.5°
Maximum altitude 08:46:42 50° 158° (SSE) 3,418 10.4 -26.1°
Drops below altitude 10° 09:02:18 10° 90° (E) 5,290 12.1 -24.9°
Sets 09:06:09 0° 86° (E) 6,080 12.5 -24.6°
